| time (UTC) | temp C | wind direction | speed KPH | gust KPH | rain 1hr cm | rain 24hr cm | rain mn cm | humidity % | barometer mb |
| 20260504031010 | 7 | 11 | 0.0 | 0.0 | 0.00 | 0.00 | 0.00 | 60 | 1011.9 |
| 20260504030508 | 7 | 11 | 0.0 | 0.0 | 0.00 | 0.00 | 0.00 | 61 | 1012.0 |
| 20260504030004 | 8 | 13 | 0.0 | 0.0 | 0.00 | 0.00 | 0.00 | 60 | 1011.8 |
| 20260504025501 | 8 | 358 | 0.0 | 1.6 | 0.00 | 0.00 | 0.00 | 60 | 1012.0 |
| 20260504024958 | 8 | 4 | 0.0 | 0.0 | 0.00 | 0.00 | 0.00 | 59 | 1011.9 |
| 20260504024455 | 8 | 11 | 0.0 | 0.0 | 0.00 | 0.00 | 0.00 | 59 | 1012.2 |
| 20260504023952 | 8 | 12 | 0.0 | 0.0 | 0.00 | 0.00 | 0.00 | 59 | 1012.2 |
| 20260504023449 | 8 | 11 | 0.0 | 0.0 | 0.00 | 0.00 | 0.00 | 58 | 1012.2 |
| 20260504022944 | 8 | 10 | 0.0 | 0.0 | 0.00 | 0.00 | 0.00 | 57 | 1012.2 |
| 20260504022440 | 8 | 5 | 0.0 | 0.0 | 0.00 | 0.00 | 0.00 | 56 | 1012.3 |
| 20260504021937 | 9 | 3 | 1.6 | 1.6 | 0.00 | 0.00 | 0.00 | 56 | 1012.1 |
| 20260504021435 | 9 | 357 | 1.6 | 1.6 | 0.00 | 0.00 | 0.00 | 56 | 1012.2 |
| 20260504020932 | 8 | 10 | 0.0 | 0.0 | 0.00 | 0.00 | 0.00 | 57 | 1012.2 |
| 20260504020428 | 8 | 2 | 0.0 | 0.0 | 0.00 | 0.00 | 0.00 | 56 | 1012.2 |
| 20260504015925 | 8 | 13 | 0.0 | 0.0 | 0.00 | 0.00 | 0.00 | 57 | 1012.3 |
| 20260504015421 | 9 | 13 | 0.0 | 0.0 | 0.00 | 0.00 | 0.00 | 56 | 1012.3 |
| 20260504014917 | 9 | 351 | 1.6 | 1.6 | 0.00 | 0.00 | 0.00 | 55 | 1012.2 |
| 20260504014413 | 10 | 1 | 1.6 | 1.6 | 0.00 | 0.00 | 0.00 | 54 | 1012.3 |
| 20260504013910 | 9 | 2 | 0.0 | 0.0 | 0.00 | 0.00 | 0.00 | 55 | 1012.0 |
| 20260504013409 | 10 | 7 | 0.0 | 0.0 | 0.00 | 0.00 | 0.00 | 55 | 1012.1 |
| 20260504012904 | 10 | 349 | 0.0 | 0.0 | 0.00 | 0.00 | 0.00 | 54 | 1012.1 |
| 20260504012403 | 10 | 7 | 0.0 | 0.0 | 0.00 | 0.00 | 0.00 | 54 | 1012.0 |
| 20260504011859 | 10 | 344 | 1.6 | 1.6 | 0.00 | 0.00 | 0.00 | 54 | 1012.0 |
| 20260504011356 | 10 | 8 | 1.6 | 1.6 | 0.00 | 0.00 | 0.00 | 53 | 1011.9 |
| 20260504010852 | 10 | 335 | 3.2 | 3.2 | 0.00 | 0.00 | 0.00 | 53 | 1012.0 |
| 20260504010348 | 10 | 9 | 0.0 | 0.0 | 0.00 | 0.00 | 0.00 | 52 | 1011.9 |
| 20260504005845 | 10 | 14 | 0.0 | 0.0 | 0.00 | 0.00 | 0.00 | 52 | 1012.1 |
| 20260504005341 | 10 | 352 | 1.6 | 1.6 | 0.00 | 0.00 | 0.00 | 52 | 1012.1 |
| 20260504004839 | 10 | 5 | 0.0 | 0.0 | 0.00 | 0.00 | 0.00 | 52 | 1011.9 |
| 20260504004337 | 11 | 310 | 4.8 | 4.8 | 0.00 | 0.00 | 0.00 | 50 | 1011.8 |
| 20260504003833 | 11 | 329 | 1.6 | 1.6 | 0.00 | 0.00 | 0.00 | 51 | 1011.8 |
| 20260504003330 | 11 | 356 | 0.0 | 0.0 | 0.00 | 0.00 | 0.00 | 50 | 1011.9 |
| 20260504002827 | 11 | 354 | 3.2 | 3.2 | 0.00 | 0.00 | 0.00 | 50 | 1011.9 |
| 20260504002323 | 11 | 318 | 1.6 | 1.6 | 0.00 | 0.00 | 0.00 | 50 | 1011.8 |
| 20260504001821 | 11 | 295 | 3.2 | 3.2 | 0.00 | 0.00 | 0.00 | 49 | 1011.8 |
| 20260504001318 | 11 | 340 | 1.6 | 1.6 | 0.00 | 0.00 | 0.00 | 48 | 1011.9 |
| 20260504000815 | 11 | 319 | 4.8 | 4.8 | 0.00 | 0.00 | 0.00 | 49 | 1012.0 |
| 20260504000312 | 11 | 263 | 6.4 | 6.4 | 0.00 | 0.00 | 0.00 | 48 | 1012.0 |
| 20260503235810 | 11 | 294 | 1.6 | 3.2 | 0.00 | 0.00 | 0.00 | 49 | 1011.8 |
| 20260503235307 | 12 | 329 | 1.6 | 1.6 | 0.00 | 0.00 | 0.00 | 48 | 1012.1 |
| 20260503234805 | 12 | 328 | 1.6 | 1.6 | 0.00 | 0.00 | 0.00 | 48 | 1011.9 |
| 20260503234302 | 12 | 347 | 3.2 | 3.2 | 0.00 | 0.00 | 0.00 | 47 | 1011.9 |
| 20260503233800 | 12 | 236 | 3.2 | 4.8 | 0.00 | 0.00 | 0.00 | 46 | 1011.9 |
| 20260503233255 | 12 | 14 | 4.8 | 4.8 | 0.00 | 0.00 | 0.00 | 46 | 1011.7 |
| 20260503232752 | 12 | 280 | 9.7 | 12.9 | 0.00 | 0.00 | 0.00 | 45 | 1011.9 |
| 20260503232250 | 12 | 352 | 1.6 | 1.6 | 0.00 | 0.00 | 0.00 | 47 | 1011.9 |
| 20260503231747 | 12 | 249 | 6.4 | 6.4 | 0.00 | 0.00 | 0.00 | 45 | 1011.9 |
| 20260503231244 | 12 | 351 | 4.8 | 4.8 | 0.00 | 0.00 | 0.00 | 45 | 1011.9 |
| 20260503230740 | 12 | 284 | 6.4 | 9.7 | 0.00 | 0.00 | 0.00 | 45 | 1011.8 |
| 20260503230238 | 12 | 274 | 3.2 | 4.8 | 0.00 | 0.00 | 0.00 | 47 | 1011.9 |
| 20260503225735 | 12 | 253 | 9.7 | 12.9 | 0.00 | 0.00 | 0.00 | 44 | 1011.9 |
| 20260503225235 | 12 | 322 | 3.2 | 3.2 | 0.00 | 0.00 | 0.00 | 45 | 1012.0 |
| 20260503224732 | 13 | 359 | 4.8 | 4.8 | 0.00 | 0.00 | 0.00 | 43 | 1011.8 |
| 20260503224230 | 13 | 239 | 6.4 | 6.4 | 0.00 | 0.00 | 0.00 | 43 | 1012.1 |
| 20260503223727 | 13 | 272 | 6.4 | 6.4 | 0.00 | 0.00 | 0.00 | 41 | 1011.9 |
| 20260503223225 | 13 | 250 | 6.4 | 9.7 | 0.00 | 0.00 | 0.00 | 41 | 1011.9 |
| 20260503222721 | 14 | 319 | 8.0 | 9.7 | 0.00 | 0.00 | 0.00 | 40 | 1012.0 |
| 20260503222219 | 15 | 228 | 8.0 | 11.3 | 0.00 | 0.00 | 0.00 | 41 | 1012.0 |
| 20260503221717 | 14 | 299 | 9.7 | 16.1 | 0.00 | 0.00 | 0.00 | 42 | 1012.0 |
| 20260503221215 | 13 | 247 | 8.0 | 9.7 | 0.00 | 0.00 | 0.00 | 42 | 1012.1 |
| 20260503220711 | 13 | 254 | 6.4 | 9.7 | 0.00 | 0.00 | 0.00 | 44 | 1012.1 |
| 20260503220208 | 14 | 160 | 8.0 | 9.7 | 0.00 | 0.00 | 0.00 | 42 | 1012.0 |
| 20260503215704 | 15 | 287 | 11.3 | 16.1 | 0.00 | 0.00 | 0.00 | 40 | 1011.9 |
| 20260503215201 | 15 | 191 | 6.4 | 9.7 | 0.00 | 0.00 | 0.00 | 44 | 1011.9 |
| 20260503214700 | 14 | 258 | 9.7 | 11.3 | 0.00 | 0.00 | 0.00 | 42 | 1012.0 |
| 20260503214155 | 14 | 249 | 22.5 | 27.4 | 0.00 | 0.00 | 0.00 | 41 | 1011.9 |
| 20260503213655 | 13 | 205 | 8.0 | 9.7 | 0.00 | 0.00 | 0.00 | 42 | 1012.0 |
| 20260503213151 | 14 | 253 | 14.5 | 17.7 | 0.00 | 0.00 | 0.00 | 40 | 1011.9 |
| 20260503212648 | 13 | 323 | 4.8 | 6.4 | 0.00 | 0.00 | 0.00 | 41 | 1011.8 |
| 20260503212146 | 14 | 288 | 8.0 | 11.3 | 0.00 | 0.00 | 0.00 | 41 | 1011.6 |
| 20260503211644 | 15 | 176 | 12.9 | 16.1 | 0.00 | 0.00 | 0.00 | 40 | 1012.0 |
| 20260503211138 | 14 | 285 | 6.4 | 9.7 | 0.00 | 0.00 | 0.00 | 42 | 1011.9 |
| 20260503210635 | 14 | 250 | 9.7 | 11.3 | 0.00 | 0.00 | 0.00 | 42 | 1011.9 |
| 20260503210132 | 15 | 244 | 4.8 | 4.8 | 0.00 | 0.00 | 0.00 | 45 | 1011.8 |
| 20260503205628 | 13 | 282 | 11.3 | 12.9 | 0.00 | 0.00 | 0.00 | 43 | 1011.9 |
| 20260503205124 | 13 | 199 | 9.7 | 16.1 | 0.00 | 0.00 | 0.00 | 42 | 1012.0 |
| 20260503204621 | 13 | 199 | 9.7 | 12.9 | 0.00 | 0.00 | 0.00 | 44 | 1012.2 |
| 20260503204119 | 14 | 153 | 8.0 | 12.9 | 0.00 | 0.00 | 0.00 | 41 | 1012.2 |
| 20260503203616 | 14 | 265 | 6.4 | 6.4 | 0.00 | 0.00 | 0.00 | 42 | 1012.1 |
| 20260503203113 | 14 | 236 | 4.8 | 6.4 | 0.00 | 0.00 | 0.00 | 43 | 1012.0 |
| 20260503202610 | 14 | 278 | 1.6 | 1.6 | 0.00 | 0.00 | 0.00 | 41 | 1012.3 |
| 20260503202108 | 15 | 235 | 9.7 | 12.9 | 0.00 | 0.00 | 0.00 | 40 | 1012.2 |
| 20260503201606 | 14 | 278 | 4.8 | 9.7 | 0.00 | 0.00 | 0.00 | 45 | 1012.3 |
| 20260503201103 | 13 | 271 | 6.4 | 9.7 | 0.00 | 0.00 | 0.00 | 44 | 1012.3 |
| 20260503200559 | 13 | 245 | 8.0 | 9.7 | 0.00 | 0.00 | 0.00 | 45 | 1012.4 |
| 20260503200056 | 14 | 83 | 4.8 | 4.8 | 0.00 | 0.00 | 0.00 | 43 | 1012.3 |
| 20260503195553 | 14 | 290 | 11.3 | 16.1 | 0.00 | 0.00 | 0.00 | 43 | 1012.6 |
| 20260503195050 | 14 | 301 | 6.4 | 11.3 | 0.00 | 0.00 | 0.00 | 47 | 1012.6 |
| 20260503194547 | 13 | 109 | 6.4 | 9.7 | 0.00 | 0.00 | 0.00 | 45 | 1012.6 |
| 20260503194047 | 14 | 299 | 9.7 | 12.9 | 0.00 | 0.00 | 0.00 | 43 | 1012.7 |
| 20260503193544 | 13 | 279 | 9.7 | 14.5 | 0.00 | 0.00 | 0.00 | 44 | 1012.8 |
| 20260503193044 | 13 | 246 | 9.7 | 11.3 | 0.00 | 0.00 | 0.00 | 45 | 1013.1 |
| 20260503192541 | 13 | 239 | 6.4 | 9.7 | 0.00 | 0.00 | 0.00 | 45 | 1012.9 |
| 20260503192037 | 13 | 319 | 3.2 | 6.4 | 0.00 | 0.00 | 0.00 | 42 | 1013.1 |
| 20260503191534 | 13 | 262 | 8.0 | 11.3 | 0.00 | 0.00 | 0.00 | 46 | 1013.1 |
| 20260503191031 | 13 | 189 | 12.9 | 14.5 | 0.00 | 0.00 | 0.00 | 43 | 1013.5 |
| 20260503190527 | 13 | 274 | 11.3 | 12.9 | 0.00 | 0.00 | 0.00 | 46 | 1013.2 |
| 20260503190025 | 12 | 245 | 11.3 | 14.5 | 0.00 | 0.00 | 0.00 | 46 | 1013.5 |
| 20260503185521 | 13 | 1 | 16.1 | 22.5 | 0.00 | 0.00 | 0.00 | 45 | 1013.4 |
| 20260503185020 | 13 | 3 | 11.3 | 16.1 | 0.00 | 0.00 | 0.00 | 45 | 1013.5 |
| 20260503184517 | 13 | 253 | 12.9 | 14.5 | 0.00 | 0.00 | 0.00 | 46 | 1013.5 |
| 20260503184014 | 13 | 288 | 14.5 | 17.7 | 0.00 | 0.00 | 0.00 | 43 | 1013.8 |
| 20260503183510 | 13 | 258 | 8.0 | 9.7 | 0.00 | 0.00 | 0.00 | 45 | 1013.8 |
| 20260503183007 | 12 | 272 | 17.7 | 22.5 | 0.00 | 0.00 | 0.00 | 45 | 1013.8 |
| 20260503182506 | 13 | 233 | 20.9 | 27.4 | 0.00 | 0.00 | 0.00 | 46 | 1013.8 |
| 20260503182004 | 12 | 234 | 11.3 | 17.7 | 0.00 | 0.00 | 0.00 | 46 | 1013.9 |
| 20260503181500 | 12 | 278 | 8.0 | 9.7 | 0.00 | 0.00 | 0.00 | 46 | 1014.0 |
| 20260503180956 | 12 | 243 | 14.5 | 20.9 | 0.00 | 0.00 | 0.00 | 47 | 1014.0 |
| 20260503180454 | 12 | 292 | 16.1 | 20.9 | 0.00 | 0.00 | 0.00 | 46 | 1013.9 |
| 20260503175951 | 12 | 282 | 14.5 | 16.1 | 0.00 | 0.00 | 0.00 | 47 | 1014.2 |
| 20260503175449 | 12 | 265 | 12.9 | 14.5 | 0.00 | 0.00 | 0.00 | 46 | 1014.2 |
| 20260503174945 | 12 | 211 | 6.4 | 6.4 | 0.00 | 0.00 | 0.00 | 48 | 1014.4 |
| 20260503174443 | 12 | 287 | 9.7 | 11.3 | 0.00 | 0.00 | 0.00 | 52 | 1014.3 |
| 20260503173938 | 11 | 210 | 9.7 | 12.9 | 0.00 | 0.00 | 0.00 | 48 | 1014.4 |
| 20260503173434 | 12 | 309 | 4.8 | 6.4 | 0.00 | 0.00 | 0.00 | 47 | 1014.4 |
| 20260503172931 | 12 | 241 | 9.7 | 12.9 | 0.00 | 0.00 | 0.00 | 48 | 1014.5 |
| 20260503172428 | 12 | 205 | 6.4 | 9.7 | 0.00 | 0.00 | 0.00 | 49 | 1014.4 |
| 20260503171925 | 12 | 63 | 4.8 | 9.7 | 0.00 | 0.00 | 0.00 | 47 | 1014.6 |
| 20260503171421 | 11 | 289 | 11.3 | 12.9 | 0.00 | 0.00 | 0.00 | 47 | 1014.5 |
| 20260503170919 | 11 | 277 | 9.7 | 11.3 | 0.00 | 0.00 | 0.00 | 47 | 1014.4 |
| 20260503170415 | 11 | 189 | 6.4 | 12.9 | 0.00 | 0.00 | 0.00 | 51 | 1014.6 |
| 20260503150807 | 9 | 266 | 12.9 | 17.7 | 0.00 | 0.00 | 0.00 | 53 | 1015.3 |
| 20260503150303 | 8 | 241 | 14.5 | 16.1 | 0.00 | 0.00 | 0.00 | 50 | 1015.4 |
| 20260503140228 | 7 | 349 | 3.2 | 4.8 | 0.00 | 0.00 | 0.00 | 67 | 1015.7 |
| 20260503131157 | 6 | 146 | 6.4 | 6.4 | 0.00 | 0.00 | 0.00 | 73 | 1015.8 |
| 20260503130655 | 5 | 315 | 9.7 | 12.9 | 0.00 | 0.00 | 0.00 | 75 | 1015.8 |
| 20260503130152 | 5 | 296 | 9.7 | 11.3 | 0.00 | 0.00 | 0.00 | 75 | 1015.7 |
| 20260503120118 | 2 | 348 | 1.6 | 1.6 | 0.00 | 0.00 | 0.00 | 88 | 1015.6 |
| 20260503110545 | 0 | 306 | 1.6 | 1.6 | 0.00 | 0.00 | 0.00 | 94 | 1015.0 |
| 20260503090432 | 0 | 10 | 0.0 | 0.0 | 0.00 | 0.00 | 0.00 | 93 | 1014.6 |
| 20260503081358 | 0 | 265 | 1.6 | 3.2 | 0.00 | 0.00 | 0.00 | 95 | 1014.5 |
| 20260503080855 | 0 | 276 | 3.2 | 3.2 | 0.00 | 0.00 | 0.00 | 95 | 1014.6 |
| 20260503080352 | 0 | 9 | 0.0 | 1.6 | 0.00 | 0.00 | 0.00 | 95 | 1014.5 |
| 20260503072828 | 0 | 13 | 0.0 | 0.0 | 0.00 | 0.00 | 0.00 | 93 | 1014.2 |
| 20260503072325 | 0 | 13 | 0.0 | 0.0 | 0.00 | 0.00 | 0.00 | 93 | 1014.2 |
| 20260503071821 | 0 | 10 | 0.0 | 0.0 | 0.00 | 0.00 | 0.00 | 93 | 1014.2 |
| 20260503071319 | 0 | 7 | 0.0 | 0.0 | 0.00 | 0.00 | 0.00 | 92 | 1014.2 |
| 20260503070815 | 0 | 14 | 0.0 | 0.0 | 0.00 | 0.00 | 0.00 | 92 | 1014.3 |
| 20260503070313 | 0 | 15 | 0.0 | 0.0 | 0.00 | 0.00 | 0.00 | 91 | 1014.2 |
| 20260503060238 | 1 | 359 | 0.0 | 0.0 | 0.00 | 0.00 | 0.00 | 92 | 1014.2 |
| 20260503054725 | 1 | 8 | 0.0 | 0.0 | 0.00 | 0.00 | 0.00 | 92 | 1014.3 |
| 20260503054222 | 1 | 10 | 0.0 | 0.0 | 0.00 | 0.00 | 0.00 | 92 | 1014.5 |
| 20260503053720 | 1 | 8 | 0.0 | 0.0 | 0.00 | 0.00 | 0.00 | 92 | 1014.7 |
| 20260503053219 | 1 | 13 | 0.0 | 0.0 | 0.00 | 0.00 | 0.00 | 92 | 1014.5 |
| 20260503052714 | 1 | 5 | 0.0 | 0.0 | 0.00 | 0.00 | 0.00 | 92 | 1014.5 |
| 20260503052211 | 1 | 4 | 0.0 | 0.0 | 0.00 | 0.00 | 0.00 | 92 | 1014.7 |
| 20260503051706 | 1 | 8 | 0.0 | 0.0 | 0.00 | 0.00 | 0.00 | 91 | 1014.8 |
| 20260503051204 | 1 | 12 | 0.0 | 0.0 | 0.00 | 0.00 | 0.00 | 91 | 1014.5 |
| 20260503050700 | 1 | 9 | 0.0 | 0.0 | 0.00 | 0.00 | 0.00 | 91 | 1014.6 |
| 20260503050157 | 1 | 14 | 0.0 | 0.0 | 0.00 | 0.00 | 0.00 | 91 | 1014.8 |
| 20260503045655 | 1 | 9 | 0.0 | 0.0 | 0.00 | 0.00 | 0.00 | 90 | 1014.9 |
| 20260503045152 | 1 | 6 | 0.0 | 0.0 | 0.00 | 0.00 | 0.00 | 90 | 1014.7 |
| 20260503044648 | 1 | 31 | 0.0 | 0.0 | 0.00 | 0.00 | 0.00 | 91 | 1014.7 |
| 20260503044146 | 1 | 13 | 0.0 | 0.0 | 0.00 | 0.00 | 0.00 | 92 | 1014.8 |
| 20260503043642 | 1 | 13 | 0.0 | 0.0 | 0.00 | 0.00 | 0.00 | 92 | 1014.7 |
| 20260503043140 | 0 | 7 | 0.0 | 0.0 | 0.00 | 0.00 | 0.00 | 93 | 1014.8 |
| 20260503042636 | 0 | 7 | 0.0 | 0.0 | 0.00 | 0.00 | 0.00 | 93 | 1014.8 |
| 20260503042132 | 0 | 7 | 0.0 | 0.0 | 0.00 | 0.00 | 0.00 | 93 | 1014.7 |
| 20260503041629 | 1 | 0 | 0.0 | 0.0 | 0.00 | 0.00 | 0.00 | 93 | 1014.7 |
| 20260503041127 | 1 | 5 | 0.0 | 0.0 | 0.00 | 0.00 | 0.00 | 92 | 1014.9 |
| 20260503040624 | 1 | 9 | 0.0 | 0.0 | 0.00 | 0.00 | 0.00 | 92 | 1014.8 |
| 20260503040121 | 0 | 10 | 0.0 | 0.0 | 0.00 | 0.15 | 0.15 | 91 | 1014.7 |
| 20260503035617 | 0 | 11 | 0.0 | 0.0 | 0.00 | 0.15 | 0.15 | 91 | 1014.8 |
| 20260503035115 | 1 | 4 | 0.0 | 0.0 | 0.00 | 0.15 | 0.15 | 91 | 1014.8 |
| 20260503034612 | 1 | 1 | 0.0 | 0.0 | 0.00 | 0.15 | 0.15 | 90 | 1014.8 |
| 20260503034110 | 1 | 10 | 0.0 | 0.0 | 0.00 | 0.15 | 0.15 | 89 | 1014.8 |
| 20260503033607 | 1 | 11 | 0.0 | 0.0 | 0.00 | 0.15 | 0.15 | 88 | 1014.8 |
| 20260503033104 | 1 | 13 | 0.0 | 0.0 | 0.00 | 0.15 | 0.15 | 88 | 1014.7 |
| 20260503032603 | 1 | 15 | 0.0 | 0.0 | 0.00 | 0.15 | 0.15 | 88 | 1014.8 |
| 20260503032100 | 1 | 15 | 0.0 | 0.0 | 0.00 | 0.15 | 0.15 | 87 | 1014.8 |
| 20260503031558 | 2 | 16 | 0.0 | 0.0 | 0.00 | 0.15 | 0.15 | 87 | 1014.8 |